Regional Weather Roundup
Issued by NWS

Home | Current Version | Previous Version | Graphics & Text | Print | Product List | Glossary On
Versions: 1 2 3 4 5 6 7 8 9 10 11 12 13 14 15 16 17 18 19 20 21 22 23 24 25 26 27
000
ASUS45 KBOI 231710
RWRID

IDAHO REGIONAL WEATHER ROUNDUP
NATIONAL WEATHER SERVICE BOISE ID
1000 AM MST THU FEB 23 2017

NOTE: "FAIR" INDICATES FEW OR NO CLOUDS BELOW 12000 FEET
WITH NO SIGNIFICANT WEATHER AND/OR OBSTRUCTIONS TO VISIBILITY

IDZ012-014-231800-
SOUTHWEST IDAHO


CITY           SKY/WX    TMP DP  RH WIND       PRES   REMARKS
BOISE          CLOUDY    31  25  78 NW23G29   29.88R WCI  18
CALDWELL       PTSUNNY   35  24  64 W24       29.93S WCI  23
MOUNTAIN HOME  PTSUNNY   32  28  86 NW35G43   29.86R WCI  17
$$

IDZ016-017-231800-
SOUTHCENTRAL IDAHO


CITY           SKY/WX    TMP DP  RH WIND       PRES   REMARKS
BURLEY         HVY SNOW  28  23  81 W15G30    29.74S VSB 1/4 WCI  16
JEROME           N/A    N/A N/A N/A MISG      29.77R
TWIN FALLS     SNOW      24  21  88 W32G38    29.77R VSB 1/4 WCI   6
$$

IDZ019>023-231800-
SOUTHEAST IDAHO


CITY           SKY/WX    TMP DP  RH WIND       PRES   REMARKS
IDAHO FALLS    LGT SNOW  27  26  96 S10       29.68R VSB 3/4 WCI  17
POCATELLO      CLOUDY    26  22  84 SW20      29.71R WCI  12
REXBURG        CLOUDY    28  25  88 S8        29.67R WCI  20
$$

IDZ006-010-011-018-031-032-231800-
CENTRAL IDAHO MOUNTAINS


CITY           SKY/WX    TMP DP  RH WIND       PRES   REMARKS
MCCALL         CLOUDY    24  16  71 NW6       29.80R WCI  17
HAILEY         CLOUDY    27  19  74 CALM      29.70R
STANLEY          N/A     21  13  71 N5        29.70R WCI  15
SALMON         CLOUDY    32  19  59 N9        29.78R WCI  24
CHALLIS        CLOUDY    29  21  72 NW13      29.73R WCI  19
$$

IDZ002-004-006-007-026-231800-
NORTHERN IDAHO


CITY           SKY/WX    TMP DP  RH WIND       PRES   REMARKS
LEWISTON       PTSUNNY   35  28  75 S5        30.09R WCI  31
LOWELL           N/A     33  31  92 CALM      30.05R
COEUR D`ALENE  FOG       28  27  96 CALM      30.06S VSB 1/4
MULLAN PASS    CLOUDY    23  17  78 N3        29.85R
$$




USA.gov is the U.S. government's official web portal to all federal, state and local government web resources and services.